Weather in Nizhnyaya Yermolovka

Russia / Karachay-Cherkess Republic     43°44′22″N   41°30′26″E
temp.,
°C
wind,
m/s
gust,
m/s
humid.,
%
clouds,
%
prec.,
mm/h
press.,
hPa
HPBL,
m
25 july, sun
sun2500:00+13ssw119547 0.0 101515
03:00+11ssw22940 0.0 101627
06:00+12ssw229217 0.0 101633
09:00+19nne216781 0.0 1014670
12:00+21n326181 0.4 10141334
15:00+20nnw227334 1.9 1015979
18:00+18nw129247 0.7 101680
21:00+15ssw219422 0.8 101714
26 july, mon
mon2600:00+14ssw22930 0.0 101723
03:00+13ssw32900 0.0 101729
06:00+14ssw22870 0.0 101730
09:00+21nne21622 0.0 1015531
12:00+24nne32540 0.0 1014995
15:00+23nnw236934 1.9 1014891
18:00+20nw128811 2.9 1015365
21:00+15ssw22971 5.8 101736
27 july, tue
tue2700:00+14ssw3295100 0.2 101742
03:00+14ssw4594100 1.1 101783
06:00+14s229167 0.5 101636
09:00+17w1285100 0.9 1015214
12:00+18ssw1380100 3.4 1016428
15:00+16nne1292100 6.1 1016205
18:00+14ne12100100 2.1 1017189
21:00+12nnw11100100 4.3 1018130
28 july, wed
wed2800:00+12nne11100100 0.2 1018131
03:00+12ne11100100 0.3 101897
06:00+12ene009991 0.0 101889
09:00+14nne119486 0.2 1018352
12:00+17n127380 0.3 1017843
15:00+19n226298 0.4 10161247
18:00+16wnw237563 0.1 1017501
21:00+12ssw228924 0.1 101923
29 july, thu
thu2900:00+11ssw22920 0.0 101819
03:00+10ssw22860 0.0 101727
06:00+11ssw22760 0.0 101730
09:00+18nne21580 0.0 1015661
12:00+21nne33520 0.0 10141244
15:00+22n335333 0.0 10131313
18:00+19n22657 0.0 1014532
21:00+13ssw22890 0.0 101627